EW6308 Weather Reports


Display with metric or nautical units.
time (UTC)temp
F
wind
direction
speed
MPH
gust
MPH
rain 1hr
in
rain 24hr
in
rain mn
in
humidity
%
barometer
mb
20260507023908 62 54 5.0 8.0 0.00 0.00 0.00 77 1018.0
20260507023405 62 359 4.0 9.0 0.00 0.00 0.00 77 1017.7
20260507022903 62 350 3.0 8.0 0.00 0.00 0.00 77 1017.6
20260507022359 62 353 3.0 6.0 0.00 0.00 0.00 78 1017.6
20260507021855 62 36 9.0 10.0 0.00 0.00 0.00 77 1017.1
20260507021350 62 31 6.0 9.0 0.00 0.00 0.00 77 1017.0
20260507020849 62 1 9.0 11.0 0.00 0.00 0.00 77 1017.0
20260507020345 62 342 9.0 10.0 0.00 0.00 0.00 77 1016.9
20260507015842 63 333 5.0 9.0 0.00 0.00 0.00 78 1016.7
20260507015340 63 12 6.0 9.0 0.00 0.00 0.00 78 1016.6
20260507014837 63 0 4.0 7.0 0.00 0.00 0.00 78 1016.3
20260507014333 63 356 7.0 9.0 0.00 0.00 0.00 78 1016.5
20260507013830 63 1 6.0 10.0 0.00 0.00 0.00 78 1016.3
20260507013327 63 341 4.0 6.0 0.00 0.00 0.00 78 1016.2
20260507012825 63 316 5.0 6.0 0.00 0.00 0.00 78 1016.4
20260507012320 63 340 4.0 9.0 0.00 0.00 0.00 78 1015.8
20260507011817 63 1 4.0 4.0 0.00 0.00 0.00 79 1016.0
20260507011314 62 350 6.0 7.0 0.00 0.00 0.00 79 1015.9
20260507010814 62 330 6.0 7.0 0.00 0.00 0.00 79 1016.0
20260507010309 62 333 4.0 7.0 0.00 0.00 0.00 79 1015.8
20260507005807 62 351 4.0 6.0 0.00 0.00 0.00 79 1015.7
20260507005305 62 340 7.0 8.0 0.00 0.00 0.00 79 1015.6
20260507004800 62 331 6.0 14.0 0.00 0.00 0.00 79 1015.7
20260507004258 62 345 5.0 7.0 0.00 0.00 0.00 79 1015.6
20260507003754 62 346 9.0 11.0 0.00 0.00 0.00 79 1014.9
20260507003249 62 322 4.0 7.0 0.00 0.00 0.00 79 1015.4
20260507002745 62 338 6.0 10.0 0.00 0.00 0.00 79 1015.4
20260507002241 62 347 6.0 11.0 0.00 0.00 0.00 79 1015.3
20260507001738 62 6 10.0 11.0 0.00 0.00 0.00 79 1015.3
20260507001236 62 337 9.0 10.0 0.00 0.00 0.00 79 1015.3
20260507000732 62 0 4.0 7.0 0.00 0.00 0.00 79 1015.5
20260507000228 62 8 6.0 7.0 0.00 0.00 0.00 79 1015.4
20260506235725 62 353 3.0 7.0 0.00 0.00 0.00 80 1015.3
20260506235220 62 313 2.0 6.0 0.00 0.00 0.00 79 1015.4
20260506234717 62 336 3.0 8.0 0.00 0.00 0.00 80 1015.5
20260506234215 62 337 3.0 6.0 0.00 0.00 0.00 80 1015.4
20260506233712 62 312 2.0 4.0 0.00 0.00 0.00 80 1015.2
20260506233208 62 307 3.0 4.0 0.00 0.00 0.00 80 1015.5
20260506232706 62 343 4.0 4.0 0.00 0.00 0.00 80 1015.4
20260506232200 61 334 2.0 3.0 0.00 0.00 0.00 80 1015.0
20260506231658 62 352 4.0 6.0 0.00 0.00 0.00 80 1015.0
20260506231156 62 283 2.0 3.0 0.00 0.00 0.00 80 1015.1
20260506230652 61 344 4.0 6.0 0.00 0.00 0.00 80 1015.0
20260506230149 61 312 2.0 7.0 0.00 0.00 0.00 80 1015.1
20260506225646 61 317 5.0 7.0 0.00 0.00 0.00 80 1015.3
20260506225143 61 5 7.0 8.0 0.00 0.00 0.00 79 1015.3
20260506224639 61 7 5.0 9.0 0.00 0.00 0.00 79 1014.9
20260506224136 61 3 3.0 8.0 0.00 0.00 0.00 80 1015.0
20260506223632 61 355 6.0 8.0 0.00 0.00 0.00 80 1015.1
20260506223128 61 356 5.0 7.0 0.00 0.00 0.00 80 1015.3
20260506222625 61 327 4.0 8.0 0.00 0.00 0.00 80 1015.0
20260506222122 61 318 7.0 9.0 0.00 0.00 0.00 80 1015.0
20260506221619 61 1 10.0 11.0 0.00 0.00 0.00 79 1015.0
20260506221117 61 358 6.0 10.0 0.00 0.00 0.00 79 1015.1
20260506220614 62 314 3.0 6.0 0.00 0.00 0.00 79 1015.0
20260506220109 62 15 4.0 7.0 0.00 0.00 0.00 78 1015.1
20260506215606 62 1 5.0 8.0 0.00 0.00 0.00 78 1015.0
20260506215101 62 8 7.0 15.0 0.00 0.00 0.00 78 1015.0
20260506214558 62 12 7.0 14.0 0.00 0.00 0.00 79 1015.0
20260506214056 62 347 4.0 7.0 0.00 0.00 0.00 79 1015.1
20260506213554 61 8 5.0 7.0 0.00 0.00 0.00 79 1015.1
20260506213051 61 4 6.0 9.0 0.00 0.00 0.00 79 1015.1
20260506212547 61 9 8.0 13.0 0.00 0.00 0.00 79 1015.5
20260506212042 61 326 8.0 10.0 0.00 0.00 0.00 80 1015.1
20260506211538 61 339 8.0 14.0 0.00 0.00 0.00 80 1015.2
20260506211036 61 349 8.0 11.0 0.00 0.00 0.00 80 1015.3
20260506210532 61 0 6.0 13.0 0.00 0.00 0.00 80 1015.3
20260506210029 61 349 5.0 9.0 0.00 0.00 0.00 80 1015.1
20260506205526 61 347 9.0 13.0 0.00 0.00 0.00 80 1015.2
20260506205021 61 5 6.0 13.0 0.00 0.00 0.00 80 1015.3
20260506204519 61 309 8.0 10.0 0.00 0.00 0.00 80 1015.4
20260506204016 61 358 6.0 9.0 0.00 0.00 0.00 80 1015.1
20260506203514 61 353 7.0 9.0 0.00 0.00 0.00 80 1015.2
20260506203010 61 315 6.0 11.0 0.00 0.00 0.00 79 1015.5
20260506202508 61 358 8.0 11.0 0.00 0.00 0.00 80 1015.2
20260506202004 60 359 6.0 11.0 0.00 0.00 0.00 80 1015.3
20260506201502 60 343 10.0 13.0 0.00 0.00 0.00 80 1015.3
20260506200958 60 337 6.0 8.0 0.00 0.00 0.00 80 1015.5
20260506200454 60 6 9.0 13.0 0.00 0.00 0.00 80 1015.4
20260506195950 60 358 8.0 10.0 0.00 0.00 0.00 80 1015.5
20260506195448 60 341 7.0 8.0 0.00 0.00 0.00 80 1015.4
20260506194944 60 23 5.0 8.0 0.00 0.00 0.00 81 1015.7
20260506194442 60 336 11.0 14.0 0.00 0.00 0.00 80 1015.7
20260506193938 60 356 8.0 11.0 0.00 0.00 0.00 80 1015.7
20260506193436 60 349 7.0 10.0 0.00 0.00 0.00 80 1015.8
20260506192932 60 337 5.0 9.0 0.00 0.00 0.00 81 1015.4
20260506192429 60 346 6.0 9.0 0.00 0.00 0.00 81 1015.7
20260506191926 60 345 7.0 10.0 0.00 0.00 0.00 81 1015.8
20260506191422 60 353 9.0 13.0 0.00 0.00 0.00 81 1015.5
20260506190919 60 328 7.0 15.0 0.00 0.00 0.00 81 1015.6
20260506190416 60 6 7.0 13.0 0.00 0.00 0.00 80 1015.6
20260506185913 60 347 11.0 19.0 0.00 0.00 0.00 79 1015.7
20260506185410 60 11 7.0 9.0 0.00 0.00 0.00 79 1016.0
20260506184907 61 3 5.0 9.0 0.00 0.00 0.00 78 1015.7
20260506184404 61 336 5.0 9.0 0.00 0.00 0.00 77 1015.8
20260506183901 61 276 5.0 11.0 0.00 0.00 0.00 77 1015.6
20260506183356 61 339 7.0 15.0 0.00 0.00 0.00 77 1015.2
20260506182854 61 356 5.0 13.0 0.00 0.00 0.00 78 1015.4
20260506182351 61 3 8.0 14.0 0.00 0.00 0.00 78 1015.4
20260506181848 61 21 9.0 14.0 0.00 0.00 0.00 78 1015.3
20260506181346 61 329 8.0 13.0 0.00 0.00 0.00 78 1015.5
20260506180843 61 14 7.0 9.0 0.00 0.00 0.00 78 1015.7
20260506180339 61 302 5.0 8.0 0.00 0.00 0.00 79 1015.6
20260506175835 61 326 4.0 9.0 0.00 0.00 0.00 78 1015.8
20260506175332 62 13 4.0 6.0 0.00 0.00 0.00 77 1015.8
20260506174829 61 320 5.0 7.0 0.00 0.00 0.00 78 1015.5
20260506174327 61 9 3.0 8.0 0.00 0.00 0.00 78 1015.4
20260506173824 62 352 7.0 8.0 0.00 0.00 0.00 77 1015.4
20260506173321 61 332 2.0 4.0 0.00 0.00 0.00 78 1014.8
20260506172818 62 342 8.0 11.0 0.00 0.00 0.00 77 1015.0
20260506172314 62 334 8.0 14.0 0.00 0.00 0.00 76 1013.8
20260506171812 64 352 9.0 16.0 0.00 0.00 0.00 75 1013.1
20260506171309 62 26 11.0 16.0 0.00 0.00 0.00 77 1013.3
20260506170807 62 18 8.0 11.0 0.00 0.00 0.00 77 1013.3
20260506170302 62 47 4.0 7.0 0.00 0.00 0.00 77 1013.8
20260506165802 62 90 5.0 7.0 0.00 0.00 0.00 78 1015.2
20260506165259 61 122 5.0 15.0 0.00 0.00 0.00 77 1014.3
20260506164755 61 143 4.0 6.0 0.00 0.00 0.00 79 1014.4
20260506164252 59 40 2.0 4.0 0.00 0.00 0.00 82 1015.0
20260506163749 59 64 4.0 7.0 0.00 0.00 0.00 82 1014.9
20260506163244 58 81 6.0 10.0 0.00 0.00 0.00 83 1014.7
20260506162740 58 39 4.0 4.0 0.00 0.00 0.00 84 1015.3
20260506162238 58 157 0.0 4.0 0.00 0.00 0.00 84 1015.7
20260506161735 58 214 2.0 3.0 0.00 0.00 0.00 84 1016.4
20260506161232 58 208 1.0 3.0 0.00 0.00 0.00 83 1016.0
20260506160730 58 15 7.0 8.0 0.00 0.00 0.00 83 1015.9
20260506160226 58 358 2.0 3.0 0.00 0.00 0.00 82 1016.5
20260506155725 58 29 4.0 11.0 0.00 0.00 0.00 82 1015.9
20260506155221 58 12 8.0 10.0 0.00 0.00 0.00 82 1016.3
20260506153323 58 346 10.0 14.0 0.00 0.00 0.00 83 1016.5
20260506152820 58 356 13.0 22.0 0.00 0.00 0.00 83 1016.2
20260506152317 58 304 6.0 15.0 0.00 0.00 0.00 83 1016.5
20260506151816 58 337 6.0 14.0 0.00 0.00 0.00 84 1016.4
20260506151312 58 10 7.0 13.0 0.00 0.00 0.00 84 1016.3
20260506150809 58 19 11.0 16.0 0.00 0.00 0.00 84 1016.3
20260506150306 59 344 13.0 17.0 0.00 0.00 0.00 83 1015.9
20260506145803 59 342 10.0 16.0 0.00 0.00 0.00 84 1016.0
20260506145259 59 8 12.0 15.0 0.00 0.00 0.00 84 1016.0
20260506144757 60 1 11.0 16.0 0.00 0.00 0.00 84 1016.1
20260506144254 60 351 9.0 11.0 0.00 0.00 0.00 84 1015.8
20260506143751 60 0 9.0 13.0 0.00 0.00 0.00 84 1015.4
20260506143248 60 345 11.0 14.0 0.00 0.00 0.00 84 1015.4
20260506142747 60 6 6.0 18.0 0.00 0.00 0.00 85 1015.5
20260506142245 60 9 9.0 14.0 0.00 0.00 0.00 87 1015.6
20260506141743 60 10 6.0 10.0 0.00 0.00 0.00 87 1015.3
20260506141241 60 15 7.0 8.0 0.00 0.00 0.00 87 1015.2
20260506140738 60 353 11.0 17.0 0.00 0.00 0.00 87 1014.7
20260506140234 60 4 6.0 11.0 0.00 0.00 0.00 88 1014.4
20260506135731 60 1 5.0 10.0 0.00 0.00 0.00 88 1014.2
20260506135228 60 345 9.0 11.0 0.00 0.00 0.00 89 1014.3
20260506134725 60 344 6.0 16.0 0.00 0.00 0.00 89 1014.1
20260506134221 60 333 6.0 10.0 0.00 0.00 0.00 90 1014.5
20260506133718 60 12 6.0 11.0 0.00 0.00 0.00 90 1014.4
20260506133215 60 2 7.0 13.0 0.00 0.00 0.00 90 1014.3
20260506132712 60 349 9.0 11.0 0.00 0.00 0.00 90 1014.2
20260506132209 60 25 3.0 10.0 0.00 0.00 0.00 91 1014.2
20260506131707 60 13 6.0 11.0 0.00 0.00 0.00 91 1014.0
20260506131202 60 343 5.0 10.0 0.00 0.00 0.00 91 1013.8
20260506130659 60 1 8.0 15.0 0.00 0.00 0.00 91 1013.8
20260506130157 60 344 8.0 10.0 0.00 0.00 0.00 92 1013.9
20260506125655 60 14 8.0 14.0 0.00 0.00 0.00 92 1013.7
20260506125152 60 347 12.0 16.0 0.00 0.00 0.00 92 1013.4
20260506124650 61 1 7.0 13.0 0.00 0.00 0.00 92 1013.6
20260506124148 61 354 12.0 19.0 0.00 0.00 0.00 92 1013.5
20260506123645 61 354 12.0 16.0 0.00 0.00 0.00 92 1013.4
20260506123144 62 357 6.0 10.0 0.00 0.00 0.00 92 1013.2
20260506122640 62 353 8.0 10.0 0.00 0.00 0.00 92 1013.2
20260506122138 62 353 9.0 16.0 0.00 0.00 0.00 92 1013.3
20260506121635 62 2 9.0 11.0 0.00 0.00 0.00 92 1013.1
20260506121131 62 358 8.0 14.0 0.00 0.00 0.00 92 1013.0
20260506120629 62 358 8.0 9.0 0.00 0.00 0.00 93 1012.9
20260506120126 62 346 7.0 10.0 0.00 0.00 0.00 93 1012.8
20260506115625 63 9 6.0 9.0 0.00 0.00 0.00 93 1012.6
20260506115123 63 342 6.0 9.0 0.00 0.00 0.00 93 1012.5
20260506114620 63 351 7.0 9.0 0.00 0.00 0.00 92 1012.6
20260506114118 63 330 4.0 9.0 0.00 0.00 0.00 92 1012.6
20260506113616 64 346 4.0 6.0 0.00 0.00 0.00 92 1012.5
20260506113113 64 4 5.0 6.0 0.00 0.00 0.00 92 1012.5
20260506112609 64 4 6.0 9.0 0.00 0.00 0.00 91 1012.4
20260506112107 65 329 2.0 6.0 0.00 0.00 0.00 91 1012.4
20260506111604 65 332 4.0 7.0 0.00 0.00 0.00 90 1012.0
20260506111102 66 311 4.0 7.0 0.00 0.00 0.00 89 1012.0
20260506110559 67 292 2.0 6.0 0.00 0.00 0.00 87 1011.9
20260506110056 68 301 4.0 6.0 0.00 0.00 0.00 85 1012.0
20260506105552 68 281 4.0 4.0 0.00 0.00 0.00 85 1011.8
20260506105049 69 275 3.0 8.0 0.00 0.00 0.00 84 1011.3
20260506104548 69 335 4.0 7.0 0.00 0.00 0.00 83 1011.4
20260506104045 70 2 4.0 7.0 0.00 0.00 0.00 82 1011.3
20260506103542 71 325 4.0 8.0 0.00 0.00 0.00 81 1011.4
20260506103039 71 282 3.0 6.0 0.00 0.00 0.00 80 1011.1
20260506102537 72 294 2.0 4.0 0.00 0.00 0.00 83 1011.0
20260506102034 74 267 3.0 4.0 0.00 0.00 0.00 88 1011.1
20260506101531 74 238 1.0 4.0 0.00 0.00 0.00 91 1010.8
20260506101028 75 206 1.0 3.0 0.00 0.00 0.00 91 1010.8
20260506100526 75 231 1.0 2.0 0.00 0.00 0.00 91 1010.7
20260506100024 75 186 4.0 4.0 0.00 0.00 0.00 91 1010.5
20260506095523 75 237 0.0 2.0 0.00 0.00 0.00 91 1010.4
20260506095018 75 231 0.0 0.0 0.00 0.00 0.00 91 1010.3
20260506094516 75 187 3.0 6.0 0.00 0.00 0.00 90 1010.2
20260506094014 75 200 1.0 7.0 0.00 0.00 0.00 90 1010.3
20260506093512 75 176 4.0 4.0 0.00 0.00 0.00 90 1010.3
20260506093009 75 152 5.0 9.0 0.00 0.00 0.00 90 1010.4
20260506092507 75 200 3.0 7.0 0.00 0.00 0.00 90 1010.3
20260506092003 75 190 4.0 6.0 0.00 0.00 0.00 89 1010.3
20260506091502 75 200 2.0 6.0 0.00 0.00 0.00 89 1010.2
20260506090958 75 144 4.0 7.0 0.00 0.00 0.00 89 1010.3
20260506090457 75 238 6.0 8.0 0.00 0.00 0.00 89 1010.2
20260506085952 75 203 3.0 4.0 0.00 0.00 0.00 89 1010.3
20260506085449 75 159 5.0 6.0 0.00 0.00 0.00 89 1010.4
20260506084946 75 171 4.0 9.0 0.00 0.00 0.00 89 1010.4
20260506084443 75 220 5.0 8.0 0.00 0.00 0.00 88 1010.4
20260506083939 75 199 6.0 8.0 0.00 0.00 0.00 88 1010.2
20260506083437 75 215 4.0 6.0 0.00 0.00 0.00 88 1010.3
20260506082933 75 130 2.0 4.0 0.00 0.00 0.00 88 1010.3
20260506082431 75 250 2.0 9.0 0.00 0.00 0.00 88 1010.4
20260506081926 75 195 9.0 11.0 0.00 0.00 0.00 88 1010.4
20260506081425 75 205 4.0 9.0 0.00 0.00 0.00 89 1010.4
20260506080921 75 215 3.0 6.0 0.00 0.00 0.00 89 1010.4
20260506080418 75 201 2.0 6.0 0.00 0.00 0.00 89 1010.4
20260506073403 75 133 3.0 4.0 0.00 0.00 0.00 90 1010.3
20260506072859 75 193 4.0 7.0 0.00 0.00 0.00 90 1010.4
20260506072357 75 205 6.0 7.0 0.00 0.00 0.00 90 1010.7
20260506071854 75 213 3.0 6.0 0.00 0.00 0.00 91 1010.7
20260506071352 75 215 4.0 7.0 0.00 0.00 0.00 91 1010.6
20260506070849 75 202 4.0 6.0 0.00 0.00 0.00 91 1010.7
20260506070346 75 154 3.0 7.0 0.00 0.00 0.00 91 1010.7
20260506062323 74 111 3.0 7.0 0.00 0.00 0.00 91 1010.4
20260506061819 74 150 5.0 8.0 0.00 0.00 0.00 91 1010.4
20260506061316 74 160 1.0 4.0 0.00 0.00 0.00 91 1010.3
20260506060814 74 211 1.0 2.0 0.00 0.00 0.00 91 1010.6
20260506060312 74 158 3.0 8.0 0.00 0.00 0.00 91 1010.5
20260506051243 75 198 7.0 8.0 0.00 0.00 0.00 89 1009.9
20260506050741 75 179 4.0 8.0 0.00 0.00 0.00 89 1010.0
20260506050238 75 207 3.0 7.0 0.00 0.00 0.00 89 1010.1
20260506044729 76 188 2.0 7.0 0.00 0.00 0.00 88 1009.7
20260506044226 76 187 5.0 8.0 0.00 0.00 0.00 88 1009.7
20260506043724 76 224 5.0 9.0 0.00 0.00 0.00 88 1009.6
20260506043221 76 246 5.0 8.0 0.00 0.00 0.00 88 1009.6
20260506042720 76 231 2.0 7.0 0.00 0.00 0.00 87 1009.7
20260506042218 76 197 6.0 8.0 0.00 0.00 0.00 87 1009.7
20260506041716 76 221 6.0 7.0 0.00 0.00 0.00 87 1009.7
20260506041213 76 227 2.0 7.0 0.00 0.00 0.00 87 1009.6
20260506040710 76 181 2.0 6.0 0.00 0.00 0.00 87 1009.9
20260506040207 76 186 4.0 8.0 0.00 0.00 0.00 87 1009.7
20260506035704 76 188 3.0 4.0 0.00 0.00 0.00 87 1009.6
20260506035201 76 212 5.0 6.0 0.00 0.00 0.00 86 1009.5
20260506034657 76 140 3.0 4.0 0.00 0.00 0.00 86 1009.5
20260506034155 76 191 3.0 7.0 0.00 0.00 0.00 86 1009.4
20260506033652 76 168 2.0 7.0 0.00 0.00 0.00 85 1009.2
20260506033149 76 168 4.0 6.0 0.00 0.00 0.00 85 1009.4
20260506032646 76 156 3.0 7.0 0.00 0.00 0.00 85 1009.3
20260506032143 76 114 2.0 7.0 0.00 0.00 0.00 85 1009.1
20260506031640 77 190 2.0 6.0 0.00 0.00 0.00 85 1008.7
20260506031136 77 200 3.0 7.0 0.00 0.00 0.00 84 1008.7
20260506030636 77 191 3.0 8.0 0.00 0.00 0.00 84 1008.6
20260506030132 77 173 4.0 7.0 0.00 0.00 0.00 83 1008.4
20260506025629 77 226 3.0 6.0 0.00 0.00 0.00 83 1008.7
20260506025125 77 169 4.0 8.0 0.00 0.00 0.00 83 1008.2
20260506024623 77 155 3.0 4.0 0.00 0.00 0.00 82 1008.2